Regional Weather Roundup
Issued by NWS Jackson, KY

Home | Current Version | Previous Version | Graphics & Text | Print | Product List | Glossary On
Versions: 1 2 3 4 5 6 7 8 9 10 11 12 13 14 15 16 17 18 19 20 21 22 23 24 25 26 27
000
ASUS43 KJKL 192110
RWRJKL

EAST KENTUCKY HOURLY WEATHER ROUNDUP
NATIONAL WEATHER SERVICE JACKSON KY
400 PM EST SUN FEB 19 2017

NOTE: "FAIR" INDICATES FEW OR NO CLOUDS BELOW 12,000 FEET WITH
NO SIGNIFICANT WEATHER AND/OR OBSTRUCTIONS TO VISIBILITY.

* THESE REPORTS ARE NOT UNDER NWS QUALITY CONTROL AND MAY NOT
  REPORT WEATHER SUCH AS PRECIPITATION AND FOG.

KYZ079-080-083-085-087-088-110-112-115-119-120-192200
...EASTERN KENTUCKY...

CITY           SKY/WX    TMP DP  RH WIND       PRES   REMARKS
JACKSON        MOSUNNY   63  46  54 VRB5      30.10F
LONDON         SUNNY     63  44  50 SE3       30.10S
SOMERSET*      SUNNY     63  45  51 CALM      30.12S
MONTICELLO*    SUNNY     66  47  50 VRB7      30.12R
WILLIAMSBURG*  CLEAR     64  46  52 NE5       30.10S
MIDDLESBORO*   SUNNY     64  47  54 CALM      30.11R
HARLAN APT*    CLEAR     63  43  48 S5        30.11R
PIKE CO APT*     N/A     60  45  57 NW3       30.11R
BIG SANDY APT* CLEAR     60  46  58 W5        30.11S
MOREHEAD APT*  CLOUDY    52  45  76 W6        30.15R
ASHLAND*       CLOUDY    55  46  71 W6        30.11R
$$

KYZ035-036-041-042-044-050-067-078-099-192200
...CENTRAL KENTUCKY...

CITY           SKY/WX    TMP DP  RH WIND       PRES   REMARKS
MT STERLING*   CLOUDY    54  46  76 CALM      30.15R
FLEMING/MASON* CLOUDY    52  48  84 SW3       30.14R
DANVILLE*      SUNNY     64  48  55 N6        30.11R
LEXINGTON      SUNNY     59  48  67 CALM      30.12R
FRANKFORT      CLOUDY    57  47  69 W8        30.11R
LOUISVILLE     CLOUDY    59  49  69 W7        30.12R
LEBANON*         N/A     64  50  59 W3        30.11R
GLASGOW*       SUNNY     65  50  58 CALM      30.11S
BOWLING GREEN  MOSUNNY   65  51  60 MISG      30.11S
$$

KYZ091>093-OHZ055-061-077-WVZ005-015-034-035-042-192200
...SOUTHERN OHIO/WEST VIRGINIA...

CITY           SKY/WX    TMP DP  RH WIND       PRES   REMARKS
COVINGTON      MOSUNNY   60  47  61 CALM      30.10R
COLUMBUS       MOSUNNY   55  45  68 S9        30.08R
DAYTON         SUNNY     59  45  59 SW8       30.09R
WILMINGTON     SUNNY     56  46  69 VRB6      30.09R
HUNTINGTON     CLOUDY    53  45  74 SW6       30.12R
CHARLESTON     CLOUDY    53  45  74 SW7       30.11R
PINEVILLE*     CLOUDY    56  42  61 MISG      30.16R
BECKLEY        CLOUDY    50  42  74 NW6       30.10R
BLUEFIELD      CLOUDY    47  41  80 VRB6      30.11S
LOGAN CO APT*  CLOUDY    55  46  71 CALM      30.10R
$$

VAZ002-007-008-TNZ017-027-036-066-071-192200
...SOUTHWEST VIRGINIA/EAST TENNESSEE...

CITY           SKY/WX    TMP DP  RH WIND       PRES   REMARKS
WISE*          SUNNY     59  41  51 N6        30.12S
JONESVILLE*      N/A     63  45  51 SW8       30.12S
ABINGDON*      PTSUNNY   57  47  69 SW8       30.11S
BRISTOL        MOSUNNY   61  43  51 N5        30.11S
MORRISTOWN*    CLEAR     61  45  55 CALM      30.10S
SEVIERVILLE*   CLEAR     63  43  48 CALM      30.10S
KNOXVILLE      SUNNY     64  45  49 NE5       30.10S
LAFOLLETTE*    CLEAR     64  45  48 CALM      30.13S
OAK RIDGE      MOSUNNY   64  44  48 S3        30.12R
CROSSVILLE     SUNNY     65  44  46 MISG      30.12R
NASHVILLE      MOSUNNY   67  50  54 CALM      30.11S
$$

...KEY TO REMARKS...
VSB - VISIBILITY IN MILES
WCI - WIND CHILL INDEX
HX  - HEAT INDEX

$$




USA.gov is the U.S. government's official web portal to all federal, state and local government web resources and services.